[[{"header":{"parameterUnit":"m.s-1","parameterCategory":1,"la1":30.2992,"la2":30.254,"lo1":-89.0895,"lo2":-89.0443,"dy":0.0025,"dx":0.0025,"nx":19,"ny":19,"refTime":"2026-03-26T03:00:00:Z","depth":0,"parameterNumber":2,"parameterNumberName":"U-component_of_WINDS"},"data":[0,0,0,2.0727,2.0727,2.0702,2.0702,2.0676,2.0675,0,0,0,0,0,0,0,0,0,0,0,2.0736,2.0736,2.0727,2.0727,2.0702,2.0702,2.0676,2.0675,0,0,0,0,0,0,0,0,0,0,0,2.0736,2.0736,2.0736,2.0727,2.0702,2.0702,2.0676,2.0693,0,0,0,0,0,0,0,0,0,0,2.0716,2.0725,2.0736,2.0736,2.0726,2.0702,2.0702,2.0693,2.0692,2.0688,0,2.0685,0,2.068,2.0674,2.0674,0,0,0,2.0726,2.0726,2.0719,2.0736,2.0726,2.0702,2.0713,2.0692,2.069,2.0686,2.0685,2.0683,2.0679,2.0674,2.0674,2.0659,2.0659,0,0,2.0727,2.0732,2.072,2.0717,2.072,2.0714,2.0712,2.0691,2.069,2.0684,2.0683,2.0679,2.0674,2.0673,2.0659,2.0659,0,0,0,2.0732,2.0733,2.0726,2.0719,2.0714,2.0713,2.0711,2.0691,2.0688,2.0682,2.0679,2.0673,2.0673,2.0659,2.0659,2.0664,0,0,0,2.0732,2.0736,2.0727,2.073,2.0714,2.0702,2.0712,2.069,2.0687,2.0679,2.0673,2.0673,2.0659,2.0659,2.0663,2.0665,0,0,0,2.0737,2.0737,2.0734,2.073,2.072,2.0702,2.0698,2.0689,2.0685,2.0674,2.0673,2.0659,2.0659,2.0663,2.0664,2.0663,0,0,0,2.0744,2.0737,2.0734,2.0725,2.072,2.0705,2.0698,2.0686,2.0678,2.0673,2.0659,2.0659,2.0663,2.0664,2.0663,2.0663,2.0663,0,0,2.0738,2.0736,2.0731,2.0728,2.0715,2.0708,2.0697,2.0683,2.0677,2.0666,2.0665,2.0663,2.0664,2.0663,2.0664,2.0665,0,0,0,2.0732,2.0728,2.0723,2.0716,2.0706,2.0698,2.0686,2.0682,2.0672,2.0672,2.0663,2.0663,2.0662,2.0662,2.0662,2.0661,2.0659,2.0659,2.0659,2.073,2.0725,2.0716,2.0708,2.0701,2.0691,2.0685,2.0678,2.0672,2.0671,2.0666,2.0668,2.0668,2.0668,2.0667,2.0666,2.0666,2.0666,2.0666,2.0722,2.0717,2.0713,2.0703,2.0698,2.069,2.0682,2.0679,2.0672,2.067,2.0668,2.0666,2.0669,2.0668,2.0667,2.0666,2.0666,2.0666,2.0666,2.072,2.0717,2.0713,2.0704,2.0698,2.0691,2.0685,2.068,2.0675,2.0674,2.0671,2.0671,2.067,2.0673,2.0673,2.0673,2.0673,2.0673,2.0673,2.072,2.0715,2.0711,2.0703,2.0699,2.0694,2.0687,2.0683,2.0678,2.0675,2.0675,2.0671,2.067,2.067,2.0673,2.0673,2.0673,2.0673,2.0673,2.0712,2.0714,2.0707,2.0704,2.0696,2.0692,2.0688,2.0682,2.0678,2.0676,2.0674,2.0674,2.0671,2.0671,2.0671,2.0674,2.0674,2.0674,2.0674,2.071,2.071,2.0704,2.0699,2.0694,2.069,2.0685,2.0681,2.0676,2.0675,2.0674,2.0674,2.0674,2.0671,2.0671,2.0671,2.0674,2.0674,2.0674,2.0706,2.0706,2.0701,2.0698,2.0693,2.0689,2.0684,2.068,2.0676,2.0674,2.0673,2.0673,2.0673,2.0673,2.0669,2.0668,2.0668,0,0]},{"header":{"parameterUnit":"m.s-1","parameterCategory":1,"la1":30.2992,"la2":30.254,"lo1":-89.0895,"lo2":-89.0443,"dy":0.0025,"dx":0.0025,"nx":19,"ny":19,"refTime":"2026-03-26T03:00:00:Z","depth":0,"parameterNumber":3,"parameterNumberName":"V-component_of_WINDS"},"data":[0,0,0,2.8403,2.8405,2.8522,2.8523,2.8651,2.8652,0,0,0,0,0,0,0,0,0,0,0,2.836,2.836,2.8402,2.8405,2.8522,2.8523,2.8651,2.8652,0,0,0,0,0,0,0,0,0,0,0,2.8359,2.836,2.8361,2.8406,2.8522,2.8523,2.8651,2.8569,0,0,0,0,0,0,0,0,0,0,2.8459,2.8412,2.836,2.8361,2.8406,2.8522,2.8523,2.8566,2.8574,2.8591,0,2.8607,0,2.8632,2.866,2.866,0,0,0,2.8411,2.8405,2.8444,2.8361,2.8407,2.8522,2.8471,2.8571,2.858,2.8602,2.8609,2.8614,2.8634,2.8661,2.8661,2.8742,2.8742,0,0,2.8404,2.8376,2.8437,2.845,2.8435,2.8467,2.8474,2.8577,2.8581,2.8609,2.8617,2.8636,2.8662,2.8662,2.8742,2.8742,0,0,0,2.8382,2.8371,2.8408,2.8444,2.8467,2.847,2.8479,2.8577,2.8591,2.8619,2.8637,2.8662,2.8664,2.8742,2.8742,2.8719,0,0,0,2.8378,2.8358,2.8405,2.8389,2.8465,2.8524,2.8476,2.8584,2.8596,2.8637,2.8662,2.8665,2.8742,2.8742,2.872,2.8713,0,0,0,2.8355,2.8356,2.837,2.8387,2.8437,2.8523,2.8544,2.8587,2.8607,2.8661,2.8665,2.8742,2.8742,2.872,2.8714,2.8724,0,0,0,2.8321,2.835,2.8369,2.8408,2.8436,2.851,2.8544,2.86,2.8643,2.8663,2.8742,2.8742,2.8721,2.8715,2.8724,2.8726,2.8725,0,0,2.8342,2.8352,2.8376,2.8397,2.846,2.8494,2.8553,2.8619,2.8649,2.8708,2.871,2.872,2.8714,2.8724,2.873,2.8729,0,0,0,2.8373,2.839,2.8413,2.8453,2.8504,2.8545,2.8605,2.8627,2.8679,2.8675,2.8727,2.8725,2.8732,2.8734,2.8733,2.8739,2.8742,2.8742,2.8742,2.8363,2.8399,2.844,2.8488,2.8525,2.8584,2.8616,2.8656,2.8683,2.8694,2.8712,2.8712,2.8713,2.8713,2.8718,2.8717,2.8717,2.8717,2.8717,2.8395,2.8423,2.8453,2.8505,2.854,2.8582,2.8636,2.8652,2.8693,2.8703,2.871,2.8717,2.8711,2.8717,2.8716,2.8716,2.8716,2.8716,2.8716,2.8391,2.841,2.8437,2.8494,2.8532,2.8579,2.8615,2.8647,2.8676,2.8684,2.8703,2.8704,2.8706,2.8691,2.8691,2.8691,2.8691,2.8691,2.8691,2.8376,2.8407,2.8436,2.8487,2.8513,2.8551,2.8605,2.8631,2.8666,2.8685,2.8686,2.8708,2.8704,2.8701,2.8691,2.8691,2.8691,2.8691,2.8691,2.8393,2.8393,2.8437,2.8463,2.8522,2.8555,2.8593,2.864,2.8666,2.8681,2.87,2.8693,2.8705,2.8706,2.8704,2.8695,2.8695,2.8695,2.8695,2.8388,2.8397,2.8446,2.8484,2.8525,2.8562,2.8604,2.8643,2.8683,2.8699,2.8705,2.8705,2.8704,2.8716,2.8717,2.8716,2.871,2.871,2.871,2.8399,2.8411,2.8444,2.8485,2.8531,2.8569,2.8608,2.8647,2.8692,2.8711,2.8712,2.8711,2.8711,2.871,2.873,2.8731,2.8728,0,0]}]]